User: anonymous   Login
Location: Unspecified
(0.0000°N, 0.0000°E)
Time: 17:50:35
(UTC+00:00)
Language:

MERIDIAN 1 - Orbit

View from above orbital plane
View from above orbital plane
View from above satellite
View from above satellite

Ground track
Ground track

The orbit data is extracted from the following two-line orbital elements,

1 29668U 06061A   17084.50243443 +.00000110 +00000-0 +00000-0 0  9991
2 29668 065.0001 104.6933 7132177 241.1307 319.1026 02.00631598075094
Epoch (UTC): 25 March 2017 12:03:30
Eccentricity: 0.7132177
inclination: 65.0001°
perigee height: 1237 km
apogee height: 39115 km
right ascension of ascending node: 104.6933°
argument of perigee: 241.1307°
revolutions per day: 2.00631598
mean anomaly at epoch: 319.1026°
orbit number at epoch: 7509

The dashed part of the orbit path shows where the satellite is in the earth's shadow,  

DLR